Location: Kings Park
(40.8862°N, 73.2573°W)
Time: 09:33:36
(UTC+00:00)

Cosmos 2278 - Pass Details

Date: 29 October 2020
Orbit: 842 x 851 km, 71.1° (Epoch: 23 November)

Event Time Altitude Azimuth Distance (km) Brightness Sun altitude
Rises 23:06:33 0° 182° (S) 3,396 7.0 -14.6°
Reaches altitude 10° 23:09:05 10° 176° (S) 2,464 6.1 -15.1°
Maximum altitude 23:14:24 43° 106° (ESE) 1,166 4.0 -16.1°
Enters shadow 23:18:43 15° 41° (NE) 2,115 5.4 -16.9°
